Location: T�bingen+AIT
(48.5342°N, 9.0700°E)
Time: 15:09:51
(UTC+01:00)

Cosmos 372 Rocket - Pass Details

Date: 14 September 2017
Orbit: 738 x 769 km, 74.1° (Epoch: 17 November)

Event Time Altitude Azimuth Distance (km) Brightness Sun altitude
Rises 21:56:24 0° 340° (NNW) 3,230 8.1 -22.2°
Reaches altitude 10° 21:58:52 10° 346° (NNW) 2,305 7.1 -22.6°
Maximum altitude 22:03:55 47° 61° (ENE) 1,004 4.4 -23.3°
Enters shadow 22:04:13 47° 72° (ENE) 1,012 4.3 -23.3°
